Regional Weather Roundup
Issued by NWS

Home | Current Version | Previous Version | Text Only | Print | Product List | Glossary Off
Versions: 1 2 3 4 5 6 7 8 9 10 11 12 13 14 15 16 17 18 19 20 21 22 23 24 25 26 27 28 29 30 31 32 33 34 35 36 37 38 39 40 41 42 43 44 45 46 47 48 49 50

000
ASUS45 KSLC 130310
RWRUT

UTAH REGIONAL WEATHER ROUNDUP
NATIONAL WEATHER SERVICE SALT LAKE CITY UT
800 PM MST FRI FEB 12 2016

UTZ001>011-023>025-130400-

NORTHERN UTAH

CITY           SKY/WX    TMP DP  RH WIND       PRES   REMARKS
BRIGHAM CITY   CLOUDY    26  24  91 CALM      30.36S
HILL AFB       FOG       28  27  98 VRB2      30.32S VSB 1
LOGAN          CLOUDY    23  22  96 N3        30.34S FOG
OGDEN          CLOUDY    27  26  96 NW5       30.33S FOG     WCI  22
PROVO AIRPORT  CLOUDY    21  19  93 CALM      30.33S FOG
SALT LAKE CITY CLOUDY    30  28  92 CALM      30.33F FOG
VERNAL         CLOUDY    25  20  81 CALM      30.34S HAZE
WENDOVER       CLOUDY    30  25  80 NE6       30.34F WCI  24
HEBER CITY     PTCLDY    23  18  80 CALM      30.27F
WEST JORDAN    CLOUDY    28  28 100 CALM      30.33F

$$

UTZ012>022-026-027-130400-

SOUTHERN/CENTRAL UTAH

CITY           SKY/WX    TMP DP  RH WIND       PRES   REMARKS
BLANDING       PTCLDY    33  28  79 N5        30.41S WCI  29
BRYCE CANYON   CLEAR     25  20  81 SW7       30.38S WCI  17
CEDAR CITY     MOCLDY    34  27  75 CALM      30.27S
DELTA          CLOUDY    16  14  94 CALM      30.33S VSB 1/4
HANKSVILLE     PTCLDY    37  34  87 NE3       30.35S
MILFORD        CLOUDY    16  13  88 N5        30.30S WCI   9
MOAB/CYNLANDS  MOCLDY    36  30  79 W3        30.31F
PRICE          MOCLDY    34  25  69 N9        30.33F WCI  27
ST GEORGE      PTCLDY    55  28  35 CALM      30.20S

$$

REGIONAL REPORTS     COLORADO/ARIZONA

CITY           SKY/WX    TMP DP  RH WIND       PRES   REMARKS
CRAIG, CO      CLOUDY    19  15  84 CALM      30.33S
GRAND JUNCTION CLOUDY    32  30  92 CALM      30.33S
RIFLE          CLOUDY    35  24  64 CALM      30.34S
MONTROSE       CLOUDY    35  27  72 S7        30.36S WCI  29
CORTEZ         CLOUDY    33  25  72 E8        30.35R WCI  26
PAGE, AZ       CLEAR     48  30  49 CALM      30.28S
GRAND CANYON   CLEAR     34  26  72 NE3       30.34S
KINGMAN        CLEAR     49  24  37 E6        30.19S
FLAGSTAFF      CLEAR     36  21  54 CALM      30.37R

$$

REGIONAL REPORTS    NEVADA/IDAHO/WYOMING

CITY           SKY/WX    TMP DP  RH WIND       PRES   REMARKS
LAS VEGAS, NV  PTCLDY    67  24  19 SW3       30.11S
ELY            PTCLDY    33  24  69 S10       30.30R WCI  25
ELKO           MOCLDY    28  21  75 E3        30.30S
POCATELLO, ID  CLOUDY    29  25  85 SE3       30.27F
BURLEY         CLOUDY    34  30  85 N3        30.22S
EVANSTON, WY   CLOUDY    39  16  39 SW6       30.29F WCI  35
ROCK SPRINGS   CLOUDY    36  19  50 SW10      30.27F WCI  28
KEMMERER       CLOUDY    32  18  55 SW5       30.30S WCI  27

$$



USA.gov is the U.S. government's official web portal to all federal, state and local government web resources and services.